Simultaneous Nadir Overpasses (SNOs) Predictions

Prediction of SNOs between LANDSAT-8 and TERRA Satellite Orbit:

Table of predicted SNOs for the next 14.0 days since TLE Epoch: 1/13/2024
Index Date (LANDSAT-8) Time (LANDSAT-8) Lat,Lon (LANDSAT-8) SZA (LANDSAT-8 ) Date (TERRA) Time (TERRA) Lat,Lon (TERRA) SZA (TERRA ) Distance(km) Time Diff (sec)
1 01/15/2024 13:47:11 -81.72,-133.88 71.82 01/15/2024 13:48:23 -81.72,-133.82 71.77 1.00 72
2 01/15/2024 14:36:37 81.71, 33.97 108.21 01/15/2024 14:37:45 81.72, 33.90 108.24 1.27 68
3 01/15/2024 15:26:04 -81.72,-158.57 71.83 01/15/2024 15:27:06 -81.71,-158.40 71.77 2.83 62
4 01/15/2024 16:15:30 81.71, 9.28 108.20 01/15/2024 16:16:28 81.71, 9.32 108.24 0.57 58
5 01/15/2024 17:04:56 -81.71, 177.15 71.78 01/15/2024 17:05:49 -81.71, 177.02 71.77 2.11 53
6 01/15/2024 17:54:23 81.71, -15.41 108.19 01/15/2024 17:55:11 81.71, -15.26 108.23 2.38 48
7 01/15/2024 18:43:49 -81.71, 152.46 71.79 01/15/2024 18:44:32 -81.71, 152.44 71.77 0.31 43
8 01/15/2024 19:33:15 81.70, -39.68 108.23 01/15/2024 19:33:54 81.70, -39.85 108.23 2.60 39
9 01/15/2024 20:22:42 -81.71, 127.77 71.80 01/15/2024 20:23:15 -81.70, 127.86 71.77 1.56 33
10 01/15/2024 21:12:08 81.70, -64.38 108.22 01/15/2024 21:12:37 81.70, -64.43 108.23 0.80 29
11 01/15/2024 22:01:34 -81.69, 103.49 71.76 01/15/2024 22:01:58 -81.70, 103.28 71.77 3.38 24
12 01/15/2024 22:51:01 81.70, -89.07 108.21 01/15/2024 22:51:20 81.70, -89.01 108.23 1.06 19
13 01/15/2024 23:40:27 -81.69, 78.80 71.77 01/15/2024 23:40:41 -81.70, 78.70 71.78 1.56 14
14 01/16/2024 00:29:54 81.70,-113.76 108.20 01/16/2024 00:30:03 81.69,-113.59 108.23 2.87 9
15 01/16/2024 01:19:20 -81.69, 54.11 71.78 01/16/2024 01:19:24 -81.69, 54.12 71.78 0.33 4
16 01/16/2024 02:08:46 81.69,-138.04 108.24 01/16/2024 02:08:46 81.69,-138.17 108.23 2.12 0
17 01/16/2024 02:58:13 -81.69, 29.41 71.79 01/16/2024 02:58:07 -81.69, 29.54 71.78 2.11 6
18 01/16/2024 03:47:39 81.69,-162.73 108.23 01/16/2024 03:47:29 81.69,-162.75 108.23 0.34 10
19 01/16/2024 04:37:05 -81.68, 5.13 71.75 01/16/2024 04:36:50 -81.68, 4.96 71.78 2.83 15
20 01/16/2024 05:26:32 81.69, 172.57 108.22 01/16/2024 05:26:12 81.68, 172.67 108.22 1.53 20
21 01/16/2024 06:15:58 -81.68, -19.56 71.76 01/16/2024 06:15:33 -81.68, -19.62 71.78 1.01 25
22 01/16/2024 07:05:25 81.69, 147.88 108.21 01/16/2024 07:04:55 81.68, 148.08 108.22 3.34 30
23 01/16/2024 07:54:51 -81.68, -44.25 71.77 01/16/2024 07:54:16 -81.68, -44.20 71.78 0.84 35
24 01/16/2024 08:44:17 81.67, 123.60 108.26 01/16/2024 08:43:38 81.67, 123.50 108.22 1.64 39
25 01/16/2024 09:33:44 -81.68, -68.95 71.78 01/16/2024 09:32:59 -81.67, -68.79 71.79 2.66 45
26 01/16/2024 10:23:10 81.67, 98.91 108.24 01/16/2024 10:22:21 81.67, 98.92 108.22 0.23 49
27 01/16/2024 11:12:36 -81.67, -93.23 71.74 01/16/2024 11:11:42 -81.67, -93.37 71.79 2.28 54
28 01/16/2024 12:02:03 81.67, 74.21 108.23 01/16/2024 12:01:04 81.67, 74.33 108.22 2.00 59
29 01/16/2024 12:51:29 -81.66,-117.92 71.75 01/16/2024 12:50:25 -81.66,-117.95 71.79 0.47 64
30 01/16/2024 13:40:55 81.66, 49.93 108.28 01/16/2024 13:39:47 81.66, 49.75 108.21 2.98 68



Historial Predications of SNOs between LANDSAT-8 and TERRA
